History for Ft Lauderdale, FL

Friday, April 21, 2017 — View Current Conditions

Jump to Data:

Date:
Airport Code:
Recently Viewed Airport Codes: KFLL
Daily Summary
  Actual Average Record
Temperature
Mean Temperature 78°F 77°F  
Max Temperature 82°F 83°F 89°F (1959)
Min Temperature 73°F 70°F 49°F (1953)
Degree Days
Heating Degree Days 0 0  
Month to date heating degree days 0 0  
Since 1 July heating degree days 35 111  
Cooling Degree Days 13 12  
Month to date cooling degree days 253 225  
Year to date cooling degree days 962 835  
Growing Degree Days 27 (Base 50)    
Moisture
Dew Point 60°F    
Average Humidity 63    
Maximum Humidity 74    
Minimum Humidity 51    
Precipitation
Precipitation 0.00 in 0.10 in 1.60 in (1934)
Month to date precipitation 0.30 2.18  
Year to date precipitation 5.08 12.13  
Snow
Snow 0.00 in in in ()
Month to date snowfall 0.0  
Since 1 July snowfall 0.0  
Snow Depth 0.00 in    
Sea Level Pressure
Sea Level Pressure 30.00 in    
Wind
Wind Speed 16 mph (ESE)    
Max Wind Speed 24 mph    
Max Gust Speed 28 mph    
Visibility 10 miles    
Events      
T = Trace of Precipitation, MM = Missing Value Source: NWS Daily Summary

Show full METARS

(help) - Comma Delimited File

Hourly Observations

Time(EDT) Temperature Dew Point Humidity Sea Level Pressure Visibility Wind Direction Wind Speed Gust Speed Precipitation Events Conditions
12:53 AM 73.9°F 57.9°F 57% 30.06 in 10.0 miles East 13.8 mph - N/A   Scattered Clouds
1:53 AM 73.0°F 57.0°F 57% 30.04 in 10.0 miles East 13.8 mph - N/A   Partly Cloudy
2:53 AM 73.0°F 55.9°F 55% 30.02 in 10.0 miles East 15.0 mph - N/A   Partly Cloudy
3:53 AM 73.0°F 55.9°F 55% 30.02 in 10.0 miles ESE 13.8 mph - N/A   Partly Cloudy
4:53 AM 73.0°F 55.9°F 55% 30.01 in 10.0 miles ESE 15.0 mph - N/A   Partly Cloudy
5:53 AM 73.9°F 57.0°F 55% 30.01 in 10.0 miles ESE 15.0 mph - N/A   Partly Cloudy
6:53 AM 73.9°F 60.1°F 62% 30.03 in 10.0 miles East 15.0 mph - N/A   Mostly Cloudy
7:53 AM 73.9°F 59.0°F 59% 30.05 in 10.0 miles East 15.0 mph - N/A   Scattered Clouds
8:53 AM 77.0°F 59.0°F 54% 30.06 in 10.0 miles ESE 11.5 mph - N/A   Mostly Cloudy
9:53 AM 79.0°F 61.0°F 54% 30.04 in 10.0 miles ESE 18.4 mph - N/A   Mostly Cloudy
10:53 AM 79.0°F 61.0°F 54% 30.04 in 10.0 miles ESE 16.1 mph - N/A   Mostly Cloudy
11:53 AM 80.1°F 62.1°F 54% 30.03 in 10.0 miles ESE 15.0 mph 24.2 mph N/A   Mostly Cloudy
12:53 PM 81.0°F 63.0°F 54% 30.01 in 10.0 miles ESE 21.9 mph 26.5 mph N/A   Mostly Cloudy
1:53 PM 80.1°F 60.1°F 50% 30.00 in 10.0 miles East 18.4 mph - N/A   Mostly Cloudy
2:53 PM 79.0°F 59.0°F 50% 29.98 in 10.0 miles ESE 15.0 mph 24.2 mph N/A   Mostly Cloudy
3:53 PM 80.1°F 60.1°F 50% 29.96 in 10.0 miles SE 18.4 mph - N/A   Mostly Cloudy
4:53 PM 79.0°F 62.1°F 56% 29.95 in 10.0 miles ESE 16.1 mph - N/A   Mostly Cloudy
5:53 PM 78.1°F 63.0°F 60% 29.95 in 10.0 miles East 17.3 mph - N/A   Mostly Cloudy
6:53 PM 77.0°F 62.1°F 60% 29.95 in 10.0 miles East 17.3 mph - N/A   Overcast
7:53 PM 75.9°F 63.0°F 64% 29.96 in 10.0 miles ESE 16.1 mph - N/A   Mostly Cloudy
8:53 PM 75.9°F 63.0°F 64% 29.96 in 10.0 miles ESE 12.7 mph - N/A   Mostly Cloudy
9:53 PM 75.9°F 64.0°F 67% 29.98 in 10.0 miles ESE 18.4 mph 23.0 mph N/A   Mostly Cloudy
10:53 PM 75.9°F 64.0°F 67% 29.98 in 10.0 miles East 17.3 mph - N/A   Mostly Cloudy
11:53 PM 75.9°F 66.0°F 71% 29.98 in 10.0 miles ESE 16.1 mph - N/A   Scattered Clouds